Retour au catalogue

THORAD DELTA 1 DEB

ActifSSO
NORAD 8308·DEBRIS·🇺🇸 United States

Lancé Nov 15, 1974 depuis Vandenberg Space Force Base

Loading…

Prochains Passages (prochaines 24 heures)

TLE

FraisSource: Space-Track

Époque: Sep 14, 2026, 00:57 UTC

1 08308U 74089BR  26257.03969016 -.00000014  00000-0  19657-3 0  9990
2 08308 101.4870 291.1496 0061748 239.8002 147.1230 12.45592119356117

Suivez THORAD DELTA 1 DEB en temps réel avec AllMySat

Download on the App Store